Погода Томпо

Погода Томпо : погода сейчас, прогноз погоды и архив. Всё, что Вы хотите узнать о погоде Томпо!

Хотите узнать прогноз погоды Томпо? Тогда Вам сюда: Погода Томпо

Поиск расширенной информации на нашем сайте:

Другие новости

Новости СМИ2

Главная страница сайта

Новости сайта

03.07.2017

Напоминаем, что на нашем специализированном сайте Метеоцентр.Азия вы можете получить высокодетализированные автоматические прогнозы погоды по пунктам России, СНГ и мира в авиационном формате (включающие направление и скорость ветра, видимость, явления погоды, количество и форму облачности, нижнюю и верхнюю границу облачности).


Погода Томпо - сегодня

Время (UTC), дата Ветер
(°,м/с) 
Видим.   Явления Облачность Т
(°С)
Тd
(°С)
f(%) Тe
(°С)
Pmin
(гПа)
dP
(гПа)
Po
(мм)
O2
(г/м3)
Тmin Tmax R s Состояние
почвы
06 19.10.17 350 (С) 20000 м    3/0 верхняя 
[Ci fib]
-12.8 -18 65 -15  1026.2  -0.6  730  310           
09 19.10.17 350 (С) 20000 м    1/0 верхняя 
[Ci fib]
-15.1 -19.3 70 -15  1026.7  730  313    -12.3       
12 19.10.17 320 (СЗ) 20000 м    3/0 верхняя 
[Ci fib]
-19.6 -22.2 80 -22  1028.9  1.2  731  319           
15 19.10.17 340 (С) 20000 м    9/0 средняя, верхняя 
[Ac As|Ci fib]
-19.6 -22.2 80 -22  1030.3  1.3  725  316           
18 19.10.17 320 (СЗ) 20000 м    10/0 средняя 
[Ac As]
-17.4 -20 80 -18  1029.5  -0.2  732  316           
21 19.10.17 350 (С) 20000 м    10/0 средняя 
[Ac As]
-16.1 -18.8 80 -18  1029.9  0.6  732  315  -19.3      равномерный
сухой снег
100% 
00 20.10.17 340 (С) 20000 м    10/10 1000 м 
[Sc]
-15.3 -18.7 75 -18  1030.1  0.4  733  314           
03 20.10.17 340 (С) 20000 м    10/10 1000 м 
[Sc]
-12.9 -17.2 70 -13  1030.1  0.3  733  311           
06 20.10.17 100 (В) 20000 м    6/4 1000 м средняя, верхняя 
[Sc|Ac und|Ci fib]
-4 -14 46 -5  1023.2  -0.7  732  300           
09 20.10.17 350 (С) 20000 м    8/6 1000 м средняя, верхняя 
[Sc|Ac As|Ci fib]
-13.3 -18.5 65 -13  1029.4  0.2  733  312    -9       
12 20.10.17 360 (С) 20000 м    10/0 средняя 
[Ac As]
-13.6 -17.9 70 -16  1030.2  0.6  733  312           
15 20.10.17 330 (СЗ) 20000 м    10/0 средняя 
[Ac As]
-14.8 -17.2 82 -15  1030.9  0.3  733  314           
18 20.10.17 370 () 20000 м    10/0 средняя 
[Ac As]
-15.6 -19 75 -18  1032  0.9  734  315           
21 20.10.17 320 (СЗ) 20000 м    6/0 средняя, верхняя 
[Ac trans|Ci fib]
-16.4 -20.6 70 -17  1031.7  -0.3  734  316  -16.5      равномерный
сухой снег
100% 
00 21.10.17 290 (З) 10 км  слаб. снег  9/0 средняя, верхняя 
[Ac As|Ci fib]
-15.8 -18.5 80 -16  1032.2  0.5  734  315  -16.6         
03 21.10.17 300 (СЗ) 20000 м  слаб. снег  9/0 средняя, верхняя 
[Ac As|Ci fib]
-13 -17.3 70 -13  1032.1  0.4  734  312           
06 21.10.17 360 (С) 20000 м  {снег}  10/0 средняя 
[Ac As]
-10.5 -14.9 70 -10  1031  -0.3  734  309           
09 21.10.17 320 (СЗ) 20000 м    10/5 1000 м средняя 
[Sc|Ac As]
-10.4 -14.8 70 -10  1030.8  -0.2  734  309    -10.1  0.0     
12 21.10.17 290 (З) 20000 м  слаб. снег  10/6 1000 м средняя 
[Sc|Ac As]
-10.6 -14.2 75 -10  1030.4  -0.4  734  309           
15 21.10.17 310 (СЗ) 20000 м  слаб. снег  10/10 1000 м 
[Sc]
-10.5 -14.1 75 -10  1029.5  -0.9  733  308           
18 21.10.17 тихо ()   20000 м  слаб. снег  10/10 1000 м 
[Sc]
-10.8 -13.6 80 -11  1029  -0.6  733  308           
21 21.10.17 тихо ()   4000 м  слаб. снег  10/4 1000 м средняя 
[Sc|Ac As]
-12.8 -14.8 85 -13  1028.3  -1.1  732  311  -14.1    0.3  равномерный
сухой снег
100% 
00 22.10.17 340 (С) 20000 м  {снег}  9/3 1000 м средняя 
[Sc|Ac As]
-14.6 -16.6 85 -15  1026.9  -1.5  731  312  -14.8         
03 22.10.17 340 (С) 20000 м    9/0 средняя 
[Ac As]
-10.8 -14.4 75 -11  1024.4  -1.8  729  307           
06 22.10.17 270 (З) 20000 м    4/0 средняя, верхняя 
[Ac trans|Ci fib]
-7.5 -12.9 65 -7  1021.6  -1.9  728  303           
Время (UTC), дата Ветер
(°,м/с) 
Видим.   Явления Облачность Т
(°С)
Тd
(°С)
f(%) Тe
(°С)
Pmin
(гПа)
dP
(гПа)
Po
(мм)
O2
(г/м3)
Тmin Tmax R s Состояние
почвы

Для получения пояснительной информации подведите курсор к названию столбца.

ПОГОДА Томпо - архив

Всё, что Вы хотите узнать о погоде Томпо - удобно и подробно!

Выберите нужную дату (начиная с 1 января 2015* года) и нажмите кнопку "Найти".
Будут отображены архивные сводки погоды по пункту Томпо, начиная с указанной даты.


Отображать данные в формате CSV (для использования в таблицах Excel)


Внимание! Наш архив погоды предназначен исключительно для личного некоммерческого использования в познавательных целях. Если Вам необходимы официальные справки о состоянии погоды (для производственных, юридических, коммерческих и т.п. целей), обращайтесь в органы Росгидромета.

*Примечание: данная дата относится к архиву по метеостанциям СССР (Россия, СНГ, Балтия).
Архив по метеостанциям Зарубежной Европы и Азии (кроме Китая) хранится 10 дней, по другим регионам земного шара (Китай, Африка, Америка, Австралия, Океания) - 1 день.

Томпо - район местоположения метеостанции


Название, широта, долгота, высота метеостанции:
Томпо 63.9°ш. 135.9°д. 402 м над ур. моря [Российская Федерация]

Дополнительная информация

В oтличие oт бoльшинства пoгoдных сайтoв мы публикуем пoдрoбную метеoинфoрмацию в детальнoм прoфессиoнальнoм фoрмате.

Характеристики температуры и влажнoсти вoздуха измеряются на высoте 2 м в тени вдали oт зданий и деревьев.
Скoрoсть ветра измеряется на высoте 10 м (на урoвне рoста челoвека скoрoсть ветра ниже в 1.5-2 раза). Если метеoстанция нахoдится в гoрoде или в лесу, тo скoрoсть ветра занижена на 2-4 м/с пo сравнению с oткрытым местoм. Скoрoсть ветра над акватoриями крупных рек и oзёр, а также на вершинах хoлмoв на 2-5 м/с выше, чем в oбычных услoвиях.
Атмoсфернoе давление в разных тoчках местнoсти мoжет значительнo oтличаться oт давления на метеoстанции, в зависимoсти oт услoвий рельефа (при пoдъёме на 10 м давление пoнижается примернo на 1 мм рт.ст.).